Regional Weather Roundup
Issued by NWS Newport/Morehead, NC

Current Version | Previous Version | Text Only | Print | Product List | Glossary On
Versions: 1 2 3 4 5 6 7 8 9 10 11 12 13 14 15 16 17 18 19 20 21 22 23 24 25 26 27 28 29 30 31 32 33 34 35 36 37 38 39 40 41 42 43 44 45 46 47 48 49 50
000 ASUS42 KMHX 250722 RWRMHX WEATHER ROUNDUP FOR EASTERN NORTH CAROLINA NATIONAL WEATHER SERVICE NEWPORT/MOREHEAD CITY NC 300 AM EDT FRI JUL 25 2014 NOTE: "FAIR" INDICATES FEW OR NO CLOUDS BELOW 12,000 FEET WITH NO SIGNIFICANT WEATHER AND/OR OBSTRUCTIONS TO VISIBILITY NCZ015>017-031-032-045>047-102-103-250800- NORTH COAST CITY SKY/WX TMP DP RH WIND PRES REMARKS EDENTON MOCLDY 69 68 97 N7 29.95R ELIZABETH CITY CLOUDY 68 67 96 NW9 29.95R KITTY HAWK CLOUDY 72 70 92 W3 29.90F MANTEO NOT AVBL $$ NCZ045>047-081-094-103-104-250800- CENTRAL COAST CITY SKY/WX TMP DP RH WIND PRES REMARKS FRISCO CLOUDY 72 72 100 N3 29.90F SWANQUARTER N/A 70 N/A N/A NW3G9 29.88S $$ NCZ095-097-098-100-101-250800- SOUTHERN COAST CITY SKY/WX TMP DP RH WIND PRES REMARKS BEAUFORT CLOUDY 72 69 90 CALM 29.93S CEDAR ISLAND N/A 72 N/A N/A W7 29.94S JACKSONVILLE MOCLDY 71 70 96 N3 29.94S NEWPORT NOT AVBL PINEY ISLAND CLOUDY 72 32 23 SW7 29.92S WILMINGTON MOCLDY 73 72 96 SE6 29.93F $$ NCZ011>013-027>030-043-044-078>080-089-090>093-098-250800- COASTAL PLAIN CITY SKY/WX TMP DP RH WIND PRES REMARKS AHOSKIE CLOUDY 68 67 96 CALM 29.98R CLINTON CLOUDY 69 69 100 CALM 29.97S ELIZABETHTOWN PTCLDY 71 71 100 CALM 29.96R GOLDSBORO PTCLDY 68 67 99 NW9 29.96R GREENVILLE PTCLDY 68 68 100 N5 29.98S HAVELOCK LGT RAIN 69 67 93 MISG 29.95R KENANSVILLE CLOUDY 68 67 95 CALM 29.97R KINSTON PTCLDY 67 67 99 NW7 29.98R NEW BERN CLOUDY 71 68 90 CALM 29.95F RICHLANDS CLOUDY 70 66 88 W3 29.95S ROANOKE RAPIDS NOT AVBL ROCKY MOUNT PTCLDY 68 66 93 N3 29.97F WASHINGTON MOCLDY 67 66 96 CALM 29.96S WHITEVILLE MOCLDY 73 72 95 CALM 29.95R FOG $$ AMZ130-135-150-152-154-156-158-170-250-252-270-ANZ085-086-088-633-658-670-250800- MARINE OBSERVATIONS STATION/POSITION TIME TEMP WIND PRES WAVE SWELL AIR SEA DIR/SP/G HT/PER HT/PER (UTC) (F) (DEG/KT/KT) (MB) (FT/S) (FT/S) CHESAPEAKE LIGHT NOT AVBL BUOY 44014 0700 76 78 330/ 10/ 12 1012.0 3/ 7 2/ 7 DUCK 0700 72 76 300/ 12/ 14 1012.4 2E DUCK 0700 N/A 2/ 8 OREGON INLET 0700 73 77 240/ 5/ 6 1012.6 BUOY 44095 0700 78 N/A 3/ 6 20E OREGON INLET NOT AVBL HATTERAS CG 0700 74 80 20/ 4/ 5 1012.9 DIAMOND BUOY 0700 VRB 10/ 12 1012.0 3/ 7 2/ 7 CAPE LOOKOUT 0700 73 270/ 1/ 2 1013.0 BEAUFORT LAB 0700 72 80 350/ 3/ 5 1013.0 30 SE NEW RIVER 0700 76 81 100/ 8/ 8 1014.1 4/ 6 3/ 6 5 SE WRIGHTSVILL 0700 74 81 110/ 2/ 4 N/A BUOY 41002 0611 82 82 230/ 19/ 23 1016.3 5/ 6 2/ 9 BUOY 41004 0700 83 83 220/ 19/ 23 1013.3 5/ 5 2/ 8 $$

USA.gov is the U.S. government's official web portal to all federal, state and local government web resources and services.